[[{"header":{"parameterUnit":"m.s-1","parameterCategory":1,"la1":30.2991,"la2":30.254,"lo1":-89.0895,"lo2":-89.0444,"dy":0.0017,"dx":0.0017,"nx":28,"ny":28,"refTime":"2025-07-13T09:00:00:Z","depth":0,"parameterNumber":2,"parameterNumberName":"U-component_of_WINDS"},"data":[0,0,0,0,0,0,0,0,0,0,0,0,0,0,0,0,0,0,0,0,0,0,0,0,0,0,0,0,0,0,0,0,0,0,0,0,0,0,0,0,0,0,0,0,0,0,0,0,0,0,0,0,0,0,0,0,0,0,1.6596,1.6597,0,1.6756,1.6758,1.676,1.6779,1.6777,1.6776,1.6774,1.6944,1.695,1.6956,0,0,0,0,0,0,0,0,0,0,0,0,0,1.6308,1.6313,1.6595,1.6597,1.6599,1.6756,1.6758,1.676,1.6779,1.6777,1.6775,1.6773,1.6942,1.6949,1.6956,0,0,0,0,0,0,0,0,0,0,0,0,0,1.6447,1.6315,1.6595,1.6627,1.6632,1.6756,1.6758,1.6761,1.678,1.6777,1.6775,1.6773,1.694,1.6948,1.6957,1.7061,0,0,1.6985,1.6989,0,0,0,0,0,0,0,0,1.6439,1.6458,1.6621,1.6625,1.6631,1.6745,1.6719,1.6862,1.678,1.6724,1.6774,1.6771,1.688,1.6894,1.6929,1.7069,1.7076,1.6986,1.6991,1.6995,1.6998,0,0,0,0,0,0,0,1.643,1.6451,1.6659,1.6623,1.6629,1.6635,1.6652,1.6746,1.6814,1.6728,1.673,1.6749,1.6882,1.6921,1.6934,1.7079,1.6985,1.6993,1.6999,1.7003,1.731,1.7312,0,0,0,0,0,0,1.6413,1.6443,1.6654,1.6664,1.6527,1.6642,1.6661,1.6711,1.6813,1.6826,1.6751,1.6749,1.6906,1.6923,1.694,1.7066,1.6995,1.7003,1.7009,1.7307,1.731,1.7313,0,0,0,0,0,0,1.6407,1.6432,1.6648,1.6554,1.6582,1.665,1.6705,1.6715,1.6753,1.6829,1.6842,1.6777,1.6905,1.6927,1.703,1.7072,1.7007,1.7016,1.7304,1.7308,1.7312,1.7321,0,0,0,0,0,0,1.6399,1.643,1.6469,1.6555,1.6587,1.6734,1.6708,1.672,1.6768,1.6768,1.6857,1.687,1.6905,1.7016,1.7039,1.7084,1.7023,1.73,1.7306,1.7311,1.7317,1.7325,1.7332,0,0,0,0,0,1.6388,1.6467,1.6471,1.6496,1.6637,1.6737,1.6755,1.6792,1.6772,1.6812,1.6861,1.6867,1.7064,1.7027,1.7052,1.71,1.7298,1.7304,1.731,1.7314,1.7323,1.7331,0,0,0,0,0,0,1.6387,1.6479,1.6484,1.6592,1.6656,1.6739,1.6792,1.6801,1.6874,1.687,1.6915,1.6935,1.7036,1.7079,1.7035,1.7205,1.7179,1.7191,1.7173,1.7183,1.719,1.7177,1.703,0,0,0,0,0,1.6398,1.647,1.6547,1.6635,1.6667,1.6724,1.6769,1.6791,1.686,1.6888,1.6944,1.7011,1.7088,1.7138,1.7213,1.7324,1.7343,1.7369,1.7376,1.7382,1.7391,1.7451,1.7463,1.7334,1.7334,1.7334,0,0,1.6424,1.6483,1.6527,1.6636,1.6689,1.6762,1.6746,1.6826,1.6881,1.69,1.7,1.7043,1.7122,1.7228,1.7278,1.7267,1.7431,1.739,1.7394,1.74,1.7459,1.7471,1.7482,1.7338,1.7337,1.7337,0,0,1.6509,1.6561,1.6639,1.6691,1.6769,1.6806,1.6825,1.6907,1.6935,1.7036,1.7051,1.7118,1.725,1.7305,1.735,1.7453,1.7461,1.7476,1.7514,1.7571,1.7582,1.7591,1.7626,1.7639,1.7486,1.7486,1.7486,0,1.6531,1.6642,1.6678,1.6757,1.6804,1.6822,1.6902,1.6951,1.7051,1.7084,1.707,1.7234,1.7288,1.7407,1.7431,1.7468,1.7491,1.7466,1.7577,1.7587,1.7596,1.763,1.7643,1.7487,1.7487,1.7487,1.7487,0,1.6665,1.6742,1.6796,1.6888,1.6942,1.7021,1.707,1.712,1.7138,1.7177,1.7278,1.7344,1.7431,1.7461,1.7481,1.7583,1.7573,1.7568,1.7542,1.7609,1.7641,1.7655,1.7489,1.7488,1.7488,1.7488,0,0,1.6753,1.6864,1.6883,1.6924,1.7012,1.7072,1.7151,1.7235,1.7277,1.7345,1.7412,1.7522,1.7517,1.7568,1.7594,1.7645,1.772,1.7633,1.7636,1.7646,1.7834,1.7837,1.7851,1.7726,1.7729,1.7731,1.7827,0,1.6846,1.6986,1.702,1.714,1.7211,1.7229,1.7298,1.7359,1.7397,1.7463,1.7506,1.7583,1.7571,1.7601,1.7652,1.77,1.7758,1.7694,1.7789,1.7792,1.7768,1.7869,1.7872,1.796,1.784,1.7843,1.7844,0,1.6974,1.7042,1.7168,1.7244,1.7275,1.7336,1.7414,1.7478,1.7547,1.7572,1.7627,1.7647,1.7731,1.7701,1.7817,1.7772,1.7813,1.7842,1.7847,1.7856,1.7821,1.788,1.7989,1.8001,1.7865,1.7864,1.7862,0,1.7023,1.7147,1.7238,1.7273,1.7365,1.7407,1.7447,1.7514,1.7562,1.7631,1.7662,1.7741,1.7784,1.7845,1.7886,1.7861,1.7998,1.7972,1.802,1.8019,1.8048,1.8045,1.8163,1.8076,1.8076,1.8076,1.8075,0,1.7123,1.7199,1.7261,1.7316,1.7402,1.7441,1.7525,1.7566,1.7626,1.769,1.7711,1.7772,1.7823,1.789,1.7923,1.8012,1.8032,1.8054,1.8062,1.8052,1.8048,1.8079,1.8073,1.8079,1.8078,1.8078,1.8077,0,1.7192,1.7237,1.7337,1.7414,1.7436,1.7495,1.7562,1.7617,1.7655,1.7736,1.7758,1.7818,1.7898,1.7945,1.8047,1.8069,1.8168,1.8173,1.8143,1.8146,1.8191,1.8185,1.8332,1.8352,1.8253,1.8253,1.8254,0,1.7252,1.7311,1.7394,1.7438,1.7478,1.7549,1.7596,1.7637,1.7687,1.7769,1.7814,1.7895,1.7962,1.8089,1.8143,1.822,1.8227,1.8273,1.8239,1.8226,1.8226,1.8221,1.8227,1.8279,1.828,1.828,1.8281,0,1.7353,1.7372,1.7439,1.7514,1.757,1.7632,1.7693,1.7728,1.7779,1.7834,1.7914,1.7966,1.8069,1.8148,1.823,1.8273,1.8285,1.8291,1.8306,1.8295,1.8275,1.8285,1.8157,1.8287,1.8287,1.8286,1.8286,1.8286,1.7419,1.7471,1.7537,1.7611,1.7661,1.7717,1.7772,1.7816,1.7884,1.7969,1.7989,1.8074,1.8142,1.8252,1.8297,1.8364,1.8356,1.8378,1.8384,1.8388,1.8388,1.8265,1.8379,1.8379,1.8379,1.8379,1.8379,0,1.752,1.7563,1.763,1.7714,1.7772,1.7777,1.7845,1.7893,1.7967,1.8028,1.8093,1.8185,1.8262,1.8321,1.84,1.8443,1.845,1.8462,1.8459,1.8468,1.8392,1.837,1.8454,1.8454,1.8454,1.8454,1.8454,1.8454,1.7579,1.7666,1.7693,1.7805,1.7848,1.793,1.7968,1.802,1.8068,1.817,1.8233,1.827,1.833,1.8414,1.8485,1.85,1.8528,1.8538,1.8554,1.8482,1.8474,1.8466,1.8445,1.8544,1.8544,1.8625,1.8625,1.8626]},{"header":{"parameterUnit":"m.s-1","parameterCategory":1,"la1":30.2991,"la2":30.254,"lo1":-89.0895,"lo2":-89.0444,"dy":0.0017,"dx":0.0017,"nx":28,"ny":28,"refTime":"2025-07-13T09:00:00:Z","depth":0,"parameterNumber":3,"parameterNumberName":"V-component_of_WINDS"},"data":[0,0,0,0,0,0,0,0,0,0,0,0,0,0,0,0,0,0,0,0,0,0,0,0,0,0,0,0,0,0,0,0,0,0,0,0,0,0,0,0,0,0,0,0,0,0,0,0,0,0,0,0,0,0,0,0,0,0,3.7427,3.7427,0,3.7397,3.7397,3.7397,3.7385,3.7386,3.7386,3.7386,3.7353,3.7352,3.7352,0,0,0,0,0,0,0,0,0,0,0,0,0,3.7469,3.7468,3.7427,3.7427,3.7426,3.7397,3.7397,3.7397,3.7385,3.7386,3.7386,3.7386,3.7354,3.7353,3.7351,0,0,0,0,0,0,0,0,0,0,0,0,0,3.7446,3.7468,3.7427,3.7417,3.7416,3.7398,3.7397,3.7397,3.7385,3.7386,3.7386,3.7386,3.7354,3.7353,3.7351,3.734,0,0,3.7347,3.7346,0,0,0,0,0,0,0,0,3.7448,3.7445,3.7419,3.7418,3.7416,3.7395,3.74,3.7377,3.7385,3.7397,3.7386,3.7386,3.7367,3.7365,3.7359,3.7338,3.7337,3.7347,3.7346,3.7345,3.7345,0,0,0,0,0,0,0,3.7449,3.7446,3.7415,3.7419,3.7417,3.7413,3.741,3.7396,3.7382,3.7396,3.7395,3.7392,3.7366,3.736,3.7358,3.7336,3.7347,3.7346,3.7345,3.7344,3.7301,3.73,0,0,0,0,0,0,3.7453,3.7447,3.7416,3.7414,3.7433,3.7412,3.7409,3.7402,3.7382,3.7379,3.7392,3.7391,3.7362,3.736,3.7357,3.7339,3.7345,3.7344,3.7343,3.7301,3.7301,3.73,0,0,0,0,0,0,3.7454,3.745,3.7417,3.7431,3.7426,3.7411,3.7404,3.7401,3.7395,3.7379,3.7376,3.7388,3.7362,3.7359,3.7343,3.7338,3.7343,3.7342,3.7301,3.7301,3.73,3.7306,0,0,0,0,0,0,3.7455,3.7451,3.7447,3.7431,3.7425,3.7406,3.7404,3.7401,3.7393,3.7392,3.7374,3.7372,3.7362,3.7345,3.7342,3.7336,3.7341,3.7302,3.7301,3.7301,3.7306,3.7306,3.7305,0,0,0,0,0,3.7457,3.7451,3.7447,3.7444,3.7421,3.7406,3.7403,3.7393,3.7393,3.7388,3.7377,3.7372,3.7339,3.7344,3.734,3.7334,3.7302,3.7301,3.7301,3.7306,3.7306,3.7305,0,0,0,0,0,0,3.7467,3.7448,3.7445,3.7433,3.7421,3.7404,3.7398,3.7393,3.738,3.738,3.7367,3.7363,3.7348,3.734,3.7345,3.7319,3.732,3.7318,3.7326,3.7325,3.7325,3.7327,3.734,0,0,0,0,0,3.7468,3.7458,3.7442,3.7433,3.7427,3.7414,3.7407,3.74,3.7387,3.7381,3.7369,3.7356,3.7342,3.7333,3.732,3.7305,3.7299,3.7298,3.7298,3.7298,3.7296,3.7284,3.7282,3.7298,3.7298,3.7298,0,0,3.747,3.7458,3.7453,3.7435,3.7425,3.7413,3.741,3.7398,3.7389,3.7379,3.7364,3.7354,3.7338,3.7321,3.7314,3.7314,3.729,3.7297,3.7297,3.7295,3.7283,3.7281,3.728,3.7298,3.7298,3.7298,0,0,3.7467,3.7458,3.7449,3.7438,3.7423,3.7414,3.7411,3.7394,3.7387,3.7371,3.7363,3.7351,3.7328,3.7316,3.7307,3.7296,3.729,3.7292,3.7289,3.7278,3.7276,3.7275,3.7269,3.7267,3.729,3.729,3.729,0,3.7471,3.7455,3.7445,3.7433,3.7424,3.7414,3.7403,3.7393,3.7374,3.7367,3.7367,3.7336,3.7325,3.7304,3.7301,3.7295,3.7289,3.7294,3.7278,3.7276,3.7275,3.7268,3.7266,3.7291,3.7291,3.7291,3.7291,0,3.7459,3.7447,3.7441,3.7423,3.7413,3.7402,3.7388,3.7379,3.7372,3.7361,3.7343,3.7329,3.7311,3.7305,3.7299,3.7283,3.7283,3.728,3.7281,3.7274,3.7267,3.7265,3.7291,3.7291,3.7291,3.7291,0,0,3.7464,3.7438,3.7436,3.7426,3.7407,3.7396,3.7383,3.7366,3.7357,3.7343,3.733,3.7309,3.7306,3.7296,3.7287,3.7277,3.7265,3.7275,3.7275,3.7272,3.7243,3.7243,3.7241,3.7261,3.7261,3.726,3.7243,0,3.7457,3.7435,3.7423,3.7405,3.7392,3.7381,3.7369,3.7355,3.7344,3.733,3.7317,3.7302,3.7301,3.7294,3.7283,3.7269,3.7259,3.727,3.7246,3.7246,3.725,3.7238,3.724,3.7224,3.7241,3.724,3.724,0,3.7447,3.7433,3.7413,3.7392,3.7386,3.7376,3.7357,3.7345,3.7327,3.732,3.7306,3.7298,3.728,3.7282,3.7256,3.7264,3.7253,3.7244,3.7243,3.724,3.7242,3.7232,3.7219,3.7216,3.7237,3.7237,3.7237,0,3.745,3.7426,3.741,3.7402,3.7378,3.737,3.736,3.7342,3.7331,3.7314,3.7306,3.7288,3.7277,3.7261,3.7246,3.7249,3.7221,3.7222,3.7212,3.7212,3.7206,3.7206,3.7189,3.7202,3.7202,3.7202,3.7202,0,3.7443,3.7431,3.741,3.7401,3.7385,3.7371,3.7356,3.7344,3.7328,3.7313,3.7303,3.7289,3.7271,3.7254,3.7242,3.7221,3.7217,3.7208,3.7205,3.7208,3.7209,3.72,3.7201,3.7201,3.7201,3.7201,3.7201,0,3.7444,3.7431,3.7412,3.739,3.7384,3.7373,3.7354,3.7342,3.733,3.7312,3.7306,3.7287,3.7266,3.7249,3.7223,3.7214,3.7191,3.7188,3.7197,3.7195,3.7185,3.7185,3.7161,3.7155,3.7173,3.7173,3.7173,0,3.7441,3.7431,3.7407,3.7397,3.7387,3.7371,3.7359,3.7344,3.7332,3.7309,3.7299,3.7278,3.726,3.7226,3.7208,3.7186,3.7182,3.7175,3.7179,3.7181,3.7179,3.7179,3.7176,3.7174,3.7174,3.7174,3.7174,0,3.7435,3.7428,3.7412,3.7393,3.7379,3.7363,3.7347,3.7339,3.732,3.7306,3.7285,3.7271,3.7242,3.722,3.7196,3.7182,3.7173,3.7172,3.7168,3.7171,3.7176,3.7171,3.7194,3.7173,3.7173,3.7173,3.7173,3.7173,3.7432,3.7421,3.7403,3.7384,3.737,3.7354,3.7341,3.7327,3.7309,3.7285,3.7277,3.7254,3.7232,3.7199,3.7185,3.7165,3.7164,3.7159,3.7158,3.7156,3.7155,3.718,3.716,3.716,3.716,3.716,3.716,0,3.7424,3.7411,3.7394,3.7371,3.7356,3.735,3.733,3.7317,3.7298,3.7279,3.7261,3.7234,3.7211,3.719,3.7165,3.7153,3.7148,3.7147,3.7147,3.7143,3.7159,3.7163,3.7151,3.7151,3.7151,3.7151,3.7151,3.7151,3.7418,3.7399,3.7389,3.7361,3.7347,3.7325,3.7314,3.7298,3.7283,3.7254,3.7235,3.7221,3.72,3.7173,3.7151,3.7145,3.7135,3.7135,3.7127,3.7142,3.7143,3.7144,3.7148,3.7133,3.7133,3.7114,3.7113,3.7113]}]]